KDEC

Decatur Airport

Airport
ICAO code
KDEC
IATA Code
DEC
Summary
ICAO Region
NAM
ICAO Territory
Location

Decatur, Illinois

Serving
Decatur
Elevation
682 ft
Coordinates
39° 50' 2" N , 88° 51' 33" W
KCC
Metar
KDEC 171154Z 19008KT 10SM CLR 26/22 A2998 RMK AO2 SLP144 T02610217 10272 20239 53011

Description

Decatur Airport is a public use airport located 5 nm east of the central business district of Decatur, a city in Macon County, Illinois.

Airport map

Aerial View

SKYbrary Partners:

Safety knowledge contributed by: